Regional Weather Roundup
Issued by NWS

Home | Current Version | Previous Version | Text Only | Print | Product List | Glossary On
Versions: 1 2 3 4 5 6 7 8 9 10 11 12 13 14 15 16 17 18 19 20 21 22 23 24 25 26 27 28 29 30 31 32 33 34 35 36 37 38 39 40 41 42 43 44 45 46 47 48 49 50
000
ASUS43 KMPX 291010
RWRMN
WEATHER ROUNDUP FOR MINNESOTA
NATIONAL WEATHER SERVICE TWIN CITIES/CHANHASSEN MN
500 AM CDT SAT AUG 29 2015


NOTE: "FAIR" INDICATES FEW OR NO CLOUDS BELOW 12,000 FEET WITH NO
SIGNIFICANT WEATHER AND/OR OBSTRUCTIONS TO VISIBILITY. N/A MEANS
CURRENT SKY AND/OR WEATHER CONDITIONS ARE NOT AVAILABLE.

MNZ060>063-068>070-291100-
   Twin Cities Metro

CITY           SKY/WX    TMP DP  RH WIND       PRES   REMARKS
TWIN CITIES    CLEAR     57  55  93 E3        30.03S
ST PAUL        CLEAR     57  55  93 E5        30.04S
CRYSTAL        CLEAR     55  53  93 CALM      30.02S FOG
BLAINE         FOG       54  54 100 CALM      30.04R VSB 3/4
LAKEVILLE      CLOUDY    54  54 100 CALM      30.03S FOG
EDEN PRAIRIE   CLEAR     58  55  90 E3        30.03R
SOUTH ST PAUL  CLEAR     56  54  92 CALM      30.03S
LAKE ELMO      FAIR      54  52  94 CALM      30.05R FOG
$$
MNZ001>005-007-008-013>017-022>024-027-028-291100-
   Northwest Minnesota

CITY           SKY/WX    TMP DP  RH WIND       PRES   REMARKS
BEMIDJI        PTCLDY    62  60  93 S6        29.96S
HALLOCK        CLOUDY    64  64 100 SE8       29.89R FOG
ROSEAU         HAZE      63  57  82 S3        29.92S VSB 1/4
WARROAD        CLEAR     64  61  88 SW3       29.92S FOG
THIEF RVR FALL CLEAR    N/A N/A N/A S6        29.92R
CROOKSTON      CLEAR     64  63  94 S9        29.92R
FOSSTON        CLEAR     61  57  88 S8        29.95S
DETROIT LAKES  CLEAR     63  59  88 S6        29.99R
MOORHEAD       CLEAR     63  61  94 S12       29.94F
PARK RAPIDS    PTCLDY    61  58  90 S7        29.99S
MAHNOMEN       FAIR      62  60  94 S7        29.95S
$$
MNZ006-009>011-018-025>026-291100-
   North Central Minnesota

CITY           SKY/WX    TMP DP  RH WIND       PRES   REMARKS
BAUDETTE       CLEAR     63  61  93 S3        29.93R
FLAG ISLAND    CLEAR     64  63  94 NW3       29.90S
INTL FALLS     CLOUDY    66  63  90 VRB3      29.94R
WASKISH        CLEAR     64  63  94 CALM      29.94S
BIG FORK       MOCLDY    63  61  94 S5        29.98R
LONGVILLE      MOCLDY    61  59  94 S7        30.00R
GRAND RAPIDS     N/A     61  57  88 S7        30.01R
CRANE LAKE     CLOUDY    61  59  94 S3        29.99R
ORR            CLOUDY    64  57  77 S6        29.97R
COOK           CLOUDY    63  61  94 SE6       30.00R
WALKER         FAIR      61  59  94 S5        29.98R
$$
MNZ012-019>021-037-291100-
   Northeast Minnesota

CITY           SKY/WX    TMP DP  RH WIND       PRES   REMARKS
DULUTH         CLOUDY    59  57  93 SW8       30.05F
ELY            CLOUDY    57  55  94 SW3       30.00S
HIBBING        CLOUDY    64  59  83 S8        30.01F
EVELETH        CLOUDY    61  59  94 S5        30.03S
DULUTH HARBOR  TSTM      59  57  94 S16       30.02F
TWO HARBORS    CLOUDY    61  55  82 SW5       30.03S
SILVER BAY     CLOUDY    59  57  94 S8        30.00F
GRAND MARAIS     N/A     58  56  93 W6        29.94F
G MARAIS ARPRT CLOUDY    57  54  88 SW5       29.98S
$$
MNZ029>031-032-039>041-046>048-054>057-064-291100-
   West Central Minnesota

CITY           SKY/WX    TMP DP  RH WIND       PRES   REMARKS
FERGUS FALLS   CLEAR     61  61 100 S8        29.98S
WHEATON        CLEAR     57  55  94 S7        29.99S
MORRIS         CLEAR     55  55 100 S7        30.00R
ALEXANDRIA     CLEAR     58  56  93 SW7       30.02S
ELBOW LAKE     FAIR      57  56  97 S8        29.99S
WADENA         CLEAR     55  55 100 SE3       30.00R
GLENWOOD       CLEAR     55  54  94 SW6       30.02F
APPLETON       CLEAR     59  54  82 S3        30.00S
BENSON         CLEAR     54  52  94 S3        30.02S
ORTONVILLE     CLEAR     57  55  94 S5        30.00S
MADISON        CLEAR     55  54  94 S3        30.01S
WILLMAR        FOG       54  54 100 CALM      30.04R VSB 3/4
$$
MNZ033>034-036-042>043-049>051-058-059-291100-
   Central Minnesota

CITY           SKY/WX    TMP DP  RH WIND       PRES   REMARKS
ST CLOUD       CLEAR     55  54  96 SE5       30.03R
SAUK CENTRE    FAIR      55  54  99 CALM      30.03S
PAYNESVILLE    CLEAR     56  55  94 CALM      30.04R
AITKIN         CLOUDY    61  55  82 S3        30.02R
PINE RIVER     MOCLDY    57  57 100 SE5       30.04R
BRAINERD       CLOUDY    58  57  97 S7        30.02S
STAPLES        PTCLDY    55  55 100 S5        30.01R
LONG PRAIRIE   CLOUDY    54  54 100 S5        30.02S
LITTLE FALLS   CLOUDY    54  52  94 SE3       30.03R
LITCHFIELD     CLEAR     57  57 100 SE3       30.03S
BUFFALO        CLEAR     54  52  93 CALM      30.04S
MAPLE LAKE     CLEAR     55  55  99 CALM      30.04S FOG
$$
MNZ037-044-045-052-053-291100-
   East Central Minnesota

CITY           SKY/WX    TMP DP  RH WIND       PRES   REMARKS
PRINCETON      CLEAR     55  54  94 CALM      30.04R FOG
MORA             N/A     52  50  93 CALM      30.06R FOG
CAMBRIDGE      CLEAR     57  50  77 CALM      30.03R
RUSH CITY      PTCLDY    54  53  96 CALM      30.05R FOG
MOOSE LAKE     MOCLDY    55  54  94 CALM      30.04R
HINCKLEY       FAIR      54  54 100 CALM      30.06R FOG
CLOQUET        CLOUDY    61  55  82 SE6       30.07R
MCGREGOR       CLOUDY    59  55  88 SE5       30.04R
$$
MNZ071>073-080-081-089-090-097-098-291100-
   Southwest Minnesota

CITY           SKY/WX    TMP DP  RH WIND       PRES   REMARKS
MONTEVIDEO     CLEAR     55  54  94 S3        30.03S
GRANITE FALLS  MOCLDY    51  51 100 CALM      30.03S FOG
CANBY          CLEAR     56  54  92 SW3       30.02F
MARSHALL       CLEAR     54  48  82 SW7       30.02F
REDWOOD FALLS  MOCLDY    51  51 100 CALM      30.03R FOG
OLIVIA         CLEAR     52  50  93 SE3       30.03R
PIPESTONE      PTCLDY    52  52 100 CALM      30.04R
WINDOM         CLOUDY    57  55  94 CALM      30.04R FOG
WORTHINGTON    CLOUDY    52  46  82 CALM      30.04S VSB 1/4
JACKSON        FOG       57  55  94 CALM      30.04S VSB 3/4
TRACY          CLEAR     54  53  97 CALM      30.03F
SLAYTON          N/A     50  50 100 CALM      30.05S FOG
$$
MNZ065>067-074>077-082>085-091>093-291100-
   South Central Minnesota

CITY           SKY/WX    TMP DP  RH WIND       PRES   REMARKS
MANKATO        CLOUDY    57  54  88 SE3       30.03S
NEW ULM        CLOUDY    55  55 100 CALM      30.03R
ST JAMES       CLOUDY    57  57 100 CALM      30.04S FOG
FAIRMONT       CLOUDY    57  52  82 N3        30.02S VSB 1
GLENCOE        CLEAR     52  52 100 CALM      30.03S
FARIBAULT      CLOUDY    57  55  94 CALM      30.04R FOG
OWATONNA       CLOUDY    57  55  94 E5        30.03S FOG
WASECA         FOG       55  55 100 MISG      30.04S VSB 3/4
ALBERT LEA     FOG       57  57 100 NE6       30.01S VSB 1/4
$$
MNZ078>079-086>088-094>096-291100-
   Southeast Minnesota

CITY           SKY/WX    TMP DP  RH WIND       PRES   REMARKS
ROCHESTER      FOG       58  57  97 NE7       30.02R VSB 1/2
RED WING       CLOUDY    55  54  94 CALM      30.02S
STANTON        CLOUDY    56  55  94 CALM      30.02S FOG
DODGE CENTER   FOG       55  55 100 NE3       30.02S VSB 1/2
WINONA         CLOUDY    59  55  88 CALM      30.02S
AUSTIN         CLOUDY    61  57  88 NE5       30.01R FOG
PRESTON        CLOUDY    58  56  96 NE5       30.01S FOG
$$
ABBREVIATIONS USED IN REMARKS
   TC - TEMPERATURES IN CELSIUS
  WCI - WIND CHILL INDEX
   HX - HEAT INDEX
  VSB - VISIBILITY
$$


USA.gov is the U.S. government's official web portal to all federal, state and local government web resources and services.